Location: Vancouver
(49.2500°N, 123.1330°W)
Time: 03:58:29
(UTC-07:00)

Vanguard 2 Rocket - Visible Passes

Search period start: 19 April 2015 00:00
Search period end: 29 April 2015 00:00
Orbit: 555 x 3332 km, 32.9° (Epoch: 19 April)

Date Brightness Start Highest point End Pass type
(mag) Time Alt. Az. Time Alt. Az. Time Alt. Az.
19 Apr 9.5 00:01:12 10° WSW 00:19:45 46° S 00:34:53 10° ESE visible
19 Apr 9.4 02:18:29 10° W 02:38:52 34° S 02:47:08 10° SE visible
19 Apr 9.7 04:44:55 16° WSW 04:48:30 17° SW 04:55:01 10° SSW visible
19 Apr 10.0 20:48:22 10° SSW 21:03:10 32° SSE 21:19:27 10° E visible
19 Apr 9.7 23:01:05 10° SW 23:19:11 46° S 23:31:22 22° ESE visible
20 Apr 9.5 01:17:15 10° WSW 01:35:19 42° SSW 01:48:59 10° SE visible
20 Apr 9.6 03:36:20 10° W 03:51:34 24° SSW 03:58:59 10° S visible
20 Apr 9.8 22:01:31 10° SW 22:18:35 43° SSE 22:35:20 11° ESE visible
21 Apr 9.5 00:16:28 10° WSW 00:35:00 46° S 00:41:08 37° SSE visible
21 Apr 9.8 02:34:16 10° W 02:58:14 20° SSE 03:01:49 10° SSE visible
21 Apr 10.0 05:04:18 11° SW 05:04:18 11° SW 05:05:34 10° SW visible
21 Apr 9.9 21:02:34 10° SW 21:18:08 38° SSE 21:35:29 10° E visible
21 Apr 9.6 23:16:12 10° WSW 23:34:25 47° S 23:45:00 27° SE visible
22 Apr 9.5 01:32:50 10° W 01:50:24 38° SSW 01:50:48 38° SSW visible
22 Apr 10.0 03:53:15 10° W 04:10:53 12° SSW 04:12:16 10° S visible
22 Apr 9.7 22:16:27 10° WSW 22:33:45 46° S 22:48:49 16° ESE visible
23 Apr 9.6 00:31:56 10° WSW 00:50:10 43° SSW 00:54:37 39° SSE visible
23 Apr 10.1 02:50:27 10° W 03:17:19 - SSE 03:00:25 24° WSW visible
23 Apr 9.8 21:17:16 10° SW 21:33:09 43° SSE 21:51:11 10° ESE visible
23 Apr 9.7 23:31:32 10° WSW 23:49:37 46° S 23:58:25 32° SE visible
24 Apr 9.8 01:48:40 10° W 02:04:13 33° SW 02:04:13 33° SW visible
24 Apr10.404:29:35S04:29:35S04:10:01WSWvisible
24 Apr 9.9 20:18:40 10° SW 20:32:50 38° SSE 20:50:26 10° E visible
24 Apr 9.7 22:31:40 10° WSW 22:48:57 47° S 23:02:12 22° ESE visible
25 Apr 9.6 00:47:35 10° W 01:05:13 39° SSW 01:08:00 37° S visible
25 Apr 10.3 03:07:23 10° W 03:13:48 17° WSW 03:13:48 17° WSW visible
25 Apr 9.8 21:32:20 10° WSW 21:48:17 46° S 22:05:59 12° ESE visible
25 Apr 9.7 23:47:04 10° WSW 00:04:46 44° SSW 00:11:47 34° SSE visible
26 Apr 10.1 02:04:54 10° W 02:17:35 26° SW 02:17:35 26° SW visible
26 Apr 9.8 20:33:30 10° SW 20:47:52 43° SSE 21:06:03 10° ESE visible
26 Apr 9.8 22:47:06 10° WSW 23:04:08 46° S 23:15:34 26° SE visible
27 Apr 9.8 01:03:28 10° W 01:20:08 33° SSW 01:21:21 33° SSW visible
27 Apr 10.6 03:26:12 10° WSW 03:27:10 11° WSW 03:27:10 11° WSW visible
27 Apr 9.8 21:47:39 10° WSW 22:03:30 47° S 22:19:20 16° ESE visible
28 Apr 9.8 00:02:48 10° W 00:19:49 39° SSW 00:25:09 34° S visible
28 Apr 10.3 02:21:54 10° W 02:30:58 19° SW 02:30:58 19° SW visible
28 Apr 9.8 20:48:40 10° WSW 21:03:00 45° S 21:21:27 10° ESE visible
